When you browse on this site, cookies collect data to enhance your experience and personalize the content and advertising you see.
Visit our Privacy Policy to learn more. By continuing to use the site, you agree to this use of cookies and data.
  • In United Kingdom
  • List of Countries
  • For 7 days
  • Water Temperature
  • Weather Map
  • Weather Widgets
  • user-avatar
    Login

    Hourly Weather Minsk

    Today, 18 October, Friday

    Time Temperature Precipitation Wind Pressure Humidity
    00:00 +9°C° 0 mm 3 mps 743 mmHg 88%
    01:00 +9°C° 0 mm 2 mps 743 mmHg 90%
    02:00 +9°C° 0 mm 2 mps 744 mmHg 89%
    03:00 +9°C° 0 mm 2 mps 744 mmHg 89%
    04:00 +9°C° 0 mm 2 mps 744 mmHg 89%
    05:00 +9°C° 0 mm 2 mps 744 mmHg 88%
    06:00 +9°C° 0 mm 2 mps 744 mmHg 87%
    07:00 +9°C° 0 mm 2 mps 744 mmHg 86%
    08:00 +9°C° 0 mm 2 mps 744 mmHg 85%
    09:00 +12°C° 0 mm 2 mps 744 mmHg 79%
    10:00 +12°C° 0 mm 3 mps 744 mmHg 73%
    11:00 +14°C° 0 mm 3 mps 744 mmHg 68%
    12:00 +14°C° 0 mm 3 mps 744 mmHg 66%
    13:00 +16°C° 0 mm 3 mps 744 mmHg 65%
    14:00 +16°C° 0 mm 3 mps 743 mmHg 64%
    15:00 +14°C° 0 mm 3 mps 743 mmHg 68%
    16:00 +14°C° 0 mm 3 mps 743 mmHg 72%
    17:00 +14°C° 0 mm 2 mps 743 mmHg 76%
    18:00 +13°C° 0 mm 2 mps 743 mmHg 78%
    19:00 +12°C° 0 mm 3 mps 743 mmHg 79%
    20:00 +11°C° 0 mm 3 mps 743 mmHg 81%
    21:00 +11°C° 0 mm 3 mps 743 mmHg 81%
    22:00 +11°C° 0 mm 3 mps 743 mmHg 82%
    23:00 +10°C° 0 mm 3 mps 743 mmHg 83%

    Tomorrow, 19 October, Saturday

    Time Temperature Precipitation Wind Pressure Humidity
    00:00 +10°C° 0 mm 3 mps 742 mmHg 86%
    01:00 +10°C° 0 mm 3 mps 742 mmHg 88%
    02:00 +10°C° 0 mm 3 mps 742 mmHg 91%
    03:00 +10°C° 0 mm 3 mps 742 mmHg 91%
    04:00 +12°C° 0 mm 2 mps 742 mmHg 92%
    05:00 +12°C° 0 mm 2 mps 742 mmHg 92%
    06:00 +12°C° 0 mm 2 mps 742 mmHg 92%
    07:00 +12°C° 0 mm 2 mps 742 mmHg 93%
    08:00 +12°C° 0 mm 2 mps 742 mmHg 94%
    09:00 +12°C° 0 mm 3 mps 742 mmHg 88%
    10:00 +13°C° 0 mm 3 mps 743 mmHg 83%
    11:00 +16°C° 0 mm 3 mps 743 mmHg 77%
    12:00 +16°C° 0 mm 3 mps 743 mmHg 75%
    13:00 +17°C° 0 mm 3 mps 743 mmHg 72%
    14:00 +17°C° 0 mm 3 mps 743 mmHg 70%
    15:00 +16°C° 0 mm 3 mps 742 mmHg 74%
    16:00 +14°C° 0 mm 3 mps 742 mmHg 78%
    17:00 +14°C° 0 mm 2 mps 742 mmHg 82%
    18:00 +13°C° 0 mm 2 mps 742 mmHg 83%
    19:00 +13°C° 0 mm 2 mps 742 mmHg 83%
    20:00 +12°C° 0 mm 2 mps 743 mmHg 84%
    21:00 +13°C° 0 mm 2 mps 743 mmHg 83%
    22:00 +13°C° 0 mm 2 mps 743 mmHg 83%
    23:00 +13°C° 0 mm 2 mps 743 mmHg 83%

    Day after tomorrow, 20 October, Sunday

    Time Temperature Precipitation Wind Pressure Humidity
    00:00 +13°C° 0 mm 2 mps 743 mmHg 83%
    01:00 +13°C° 0 mm 2 mps 743 mmHg 84%
    02:00 +12°C° 0 mm 3 mps 743 mmHg 85%
    03:00 +12°C° 0.2 mm 3 mps 742 mmHg 86%
    04:00 +13°C° 0.2 mm 2 mps 742 mmHg 88%
    05:00 +13°C° 0.2 mm 2 mps 742 mmHg 89%
    06:00 +11°C° 0 mm 3 mps 742 mmHg 89%
    07:00 +11°C° 0 mm 3 mps 742 mmHg 89%
    08:00 +11°C° 0 mm 3 mps 742 mmHg 89%
    09:00 +12°C° 0 mm 3 mps 743 mmHg 84%
    10:00 +14°C° 0 mm 4 mps 743 mmHg 80%
    11:00 +15°C° 0 mm 4 mps 743 mmHg 75%
    12:00 +17°C° 0 mm 4 mps 743 mmHg 72%
    13:00 +17°C° 0 mm 4 mps 743 mmHg 70%
    14:00 +18°C° 0 mm 4 mps 743 mmHg 67%
    15:00 +17°C° 0 mm 3 mps 743 mmHg 72%
    16:00 +16°C° 0 mm 3 mps 743 mmHg 77%
    17:00 +15°C° 0 mm 2 mps 743 mmHg 82%
    18:00 +15°C° 0 mm 2 mps 743 mmHg 84%
    19:00 +14°C° 0 mm 2 mps 743 mmHg 87%
    20:00 +14°C° 0 mm 2 mps 743 mmHg 89%
    21:00 +13°C° 0 mm 2 mps 743 mmHg 89%
    22:00 +13°C° 0 mm 2 mps 743 mmHg 90%
    23:00 +13°C° 0 mm 2 mps 743 mmHg 90%

    21 October, Monday

    Time Temperature Precipitation Wind Pressure Humidity
    00:00 +13°C° 0 mm 2 mps 743 mmHg 90%
    01:00 +12°C° 0 mm 2 mps 743 mmHg 90%
    02:00 +12°C° 0 mm 2 mps 743 mmHg 91%
    03:00 +12°C° 0 mm 2 mps 743 mmHg 91%
    04:00 +12°C° 0 mm 2 mps 743 mmHg 91%
    05:00 +12°C° 0 mm 2 mps 743 mmHg 91%
    06:00 +12°C° 0 mm 2 mps 743 mmHg 91%
    07:00 +12°C° 0 mm 2 mps 743 mmHg 91%
    08:00 +12°C° 0 mm 2 mps 743 mmHg 91%
    09:00 +14°C° 0 mm 2 mps 743 mmHg 85%
    10:00 +16°C° 0 mm 3 mps 743 mmHg 79%
    11:00 +17°C° 0 mm 3 mps 743 mmHg 74%
    12:00 +18°C° 0 mm 3 mps 743 mmHg 70%
    13:00 +19°C° 0 mm 4 mps 743 mmHg 67%
    14:00 +20°C° 0 mm 4 mps 743 mmHg 64%
    15:00 +18°C° 0 mm 4 mps 742 mmHg 69%
    16:00 +17°C° 0 mm 3 mps 742 mmHg 74%
    17:00 +16°C° 0 mm 3 mps 742 mmHg 79%
    18:00 +16°C° 0 mm 3 mps 742 mmHg 81%
    19:00 +14°C° 0 mm 3 mps 742 mmHg 83%
    20:00 +13°C° 0 mm 3 mps 742 mmHg 85%
    21:00 +13°C° 0 mm 3 mps 741 mmHg 86%
    22:00 +13°C° 0 mm 3 mps 741 mmHg 88%
    23:00 +12°C° 0 mm 3 mps 741 mmHg 89%

    22 October, Tuesday

    Time Temperature Precipitation Wind Pressure Humidity
    00:00 +12°C° 0 mm 3 mps 741 mmHg 90%
    01:00 +12°C° 0 mm 3 mps 742 mmHg 91%
    02:00 +12°C° 0 mm 3 mps 742 mmHg 92%
    03:00 +12°C° 0 mm 3 mps 742 mmHg 92%
    04:00 +12°C° 0 mm 4 mps 742 mmHg 92%
    05:00 +12°C° 0 mm 4 mps 742 mmHg 92%
    06:00 +12°C° 0 mm 4 mps 742 mmHg 90%
    07:00 +10°C° 0 mm 5 mps 742 mmHg 88%
    08:00 +10°C° 0 mm 5 mps 743 mmHg 86%
    09:00 +10°C° 0 mm 6 mps 743 mmHg 83%
    10:00 +11°C° 0 mm 6 mps 743 mmHg 79%
    11:00 +11°C° 0 mm 6 mps 743 mmHg 76%
    12:00 +11°C° 0 mm 6 mps 744 mmHg 76%
    13:00 +11°C° 0 mm 6 mps 744 mmHg 76%
    14:00 +11°C° 0 mm 6 mps 744 mmHg 76%
    15:00 +12°C° 0 mm 5 mps 745 mmHg 78%
    16:00 +12°C° 0 mm 5 mps 745 mmHg 79%
    17:00 +12°C° 0 mm 5 mps 745 mmHg 81%
    18:00 +10°C° 0 mm 5 mps 746 mmHg 81%
    19:00 +9°C° 0 mm 5 mps 747 mmHg 80%
    20:00 +8°C° 0 mm 5 mps 747 mmHg 79%
    21:00 +8°C° 0 mm 4 mps 748 mmHg 78%
    22:00 +9°C° 0 mm 3 mps 748 mmHg 77%
    23:00 +8°C° 0 mm 3 mps 748 mmHg 77%

    23 October, Wednesday

    Time Temperature Precipitation Wind Pressure Humidity
    00:00 +8°C° 0 mm 3 mps 749 mmHg 78%
    01:00 +7°C° 0 mm 2 mps 749 mmHg 80%
    02:00 +7°C° 0 mm 2 mps 749 mmHg 82%
    03:00 +7°C° 0 mm 2 mps 749 mmHg 85%
    04:00 +6°C° 0 mm 2 mps 749 mmHg 89%
    05:00 +6°C° 0 mm 2 mps 750 mmHg 92%
    06:00 +6°C° 0 mm 2 mps 750 mmHg 91%
    07:00 +6°C° 0 mm 2 mps 750 mmHg 90%
    08:00 +6°C° 0 mm 2 mps 750 mmHg 89%
    09:00 +7°C° 0 mm 3 mps 750 mmHg 83%
    10:00 +8°C° 0 mm 3 mps 750 mmHg 77%
    11:00 +8°C° 0 mm 4 mps 750 mmHg 71%
    12:00 +9°C° 0 mm 3 mps 750 mmHg 70%
    13:00 +9°C° 0 mm 3 mps 750 mmHg 69%
    14:00 +9°C° 0 mm 3 mps 750 mmHg 68%
    15:00 +9°C° 0 mm 3 mps 749 mmHg 72%
    16:00 +8°C° 0 mm 2 mps 749 mmHg 75%
    17:00 +8°C° 0 mm 2 mps 749 mmHg 79%
    18:00 +7°C° 0 mm 2 mps 749 mmHg 81%
    19:00 +7°C° 0 mm 2 mps 749 mmHg 84%
    20:00 +6°C° 0 mm 2 mps 749 mmHg 86%
    21:00 +6°C° 0 mm 2 mps 749 mmHg 88%
    22:00 +6°C° 0 mm 2 mps 749 mmHg 89%
    23:00 +5°C° 0 mm 2 mps 750 mmHg 90%
    Show more